Kekaha, MQ

3:26 PM SST on December 04, 2016 (GMT -1100)
Henderson Field

Weather History for PMDY - February, 2014

Change the Weather History Date:

Sunday, February 9, 2014

  Actual Average (PHBK) Record (PHBK)
Temperature  
Mean Temperature 63 °F -  
Max Temperature 66 °F 81 °F 86 °F (1958)
Min Temperature 61 °F 60 °F 54 °F (1978)
Degree Days  
Heating Degree Days 2    
Growing Degree Days 13 (Base 50)    
Moisture  
Dew Point 55 °F    
Average Humidity 73    
Maximum Humidity 78    
Minimum Humidity 65    
Precipitation  
Precipitation 0.00 in - - ()
Sea Level Pressure  
Sea Level Pressure 30.65 in    
Wind  
Wind Speed 22 mph (ENE)    
Max Wind Speed 28 mph    
Max Gust Speed 34 mph    
Visibility 9 miles    
Events      
Averages and records for this station are not official NWS values.
T = Trace of Precipitation, MM = Missing Value Source: NWS Daily Summary

Daily Weather History Graph

Daily Weather History Graph

Search for Another Location

Airport or City:

Trip Planner

Search our weather history database for the weather conditions in past years. The results will help you decide how hot, cold, wet, or windy it might be!

Date:

Astronomy

Feb. 09, 2014 Rise Set
Actual Time 6:31 PM GMT 5:36 AM GMT
Civil Twilight 6:07 PM GMT 6:00 AM GMT
Nautical Twilight 5:39 PM GMT 6:28 AM GMT
Astronomical Twilight 5:12 PM GMT 6:55 AM GMT
Moon 12:48 AM GMT (2/9) 2:40 PM GMT (2/9)
Length of Visible Light 11h 52m
Length of Day
11h 04m
Waxing Gibbous, 75% of the Moon is Illuminated
Feb 9
Waxing Gibbous
Feb 14
Full
Feb 22
Last Quarter
Mar 1
New
Mar 8
First Quarter

Hourly Weather History & Observations

Time (GMT) Temp. Dew Point Humidity Pressure Visibility Wind Dir Wind Speed Gust Speed Precip Events Conditions
12:56 AM 65.8 °F 54.9 °F 68% 30.88 in 8.0 mi East 23.0 mph 31.1 mph N/A   Mostly Cloudy
1:56 AM 65.8 °F 54.0 °F 65% 30.85 in 9.0 mi East 26.5 mph 34.5 mph N/A   Partly Cloudy
2:56 AM 64.9 °F 54.0 °F 68% 30.84 in 8.0 mi East 26.5 mph 34.5 mph N/A   Clear
3:56 AM 64.9 °F 54.0 °F 68% 30.84 in 8.0 mi East 27.6 mph 32.2 mph N/A   Clear
4:56 AM 63.9 °F 54.0 °F 70% 30.85 in 8.0 mi East 26.5 mph 31.1 mph N/A   Mostly Cloudy
5:56 AM 63.0 °F 54.0 °F 72% 30.86 in 10.0 mi East 23.0 mph 32.2 mph N/A   Overcast
6:56 AM 63.0 °F 54.0 °F 72% 30.87 in 9.0 mi East 27.6 mph 33.4 mph N/A   Overcast
7:56 AM 63.9 °F 54.9 °F 72% 30.87 in 9.0 mi East 26.5 mph 31.1 mph N/A   Overcast
8:56 AM 64.4 °F 55.4 °F 73% 29.96 in 8.0 mi East 26.5 mph - N/A   Mostly Cloudy
9:56 AM 63.9 °F 54.9 °F 72% 30.87 in 6.0 mi East 24.2 mph 31.1 mph N/A   Haze
10:56 AM 63.9 °F 54.9 °F 72% 30.86 in 8.0 mi East 18.4 mph 26.5 mph N/A   Mostly Cloudy
11:56 AM 63.9 °F 54.9 °F 72% 30.85 in 8.0 mi East 25.3 mph 29.9 mph N/A   Partly Cloudy
12:22 PM 64.4 °F 55.4 °F 73% 29.93 in 9.0 mi East 18.4 mph 24.2 mph N/A   Mostly Cloudy
12:32 PM 64.4 °F 55.4 °F 73% 29.93 in 8.0 mi East 21.9 mph - N/A   Mostly Cloudy
12:40 PM 64.4 °F 55.4 °F 73% 29.93 in 8.0 mi East 16.1 mph - N/A   Mostly Cloudy
12:56 PM 63.9 °F 55.9 °F 75% 30.84 in 9.0 mi East 17.3 mph 23.0 mph N/A   Mostly Cloudy
1:17 PM 62.6 °F 55.4 °F 77% 29.92 in 10.0 mi ENE 17.3 mph 23.0 mph N/A   Mostly Cloudy
1:56 PM 63.9 °F 54.9 °F 72% 30.83 in 9.0 mi East 17.3 mph - N/A   Overcast
2:56 PM 62.6 °F 55.4 °F 77% 29.90 in 9.0 mi East 18.4 mph 24.2 mph N/A   Overcast
3:56 PM 63.0 °F 54.9 °F 75% 30.80 in 9.0 mi ENE 13.8 mph - N/A   Clear
4:56 PM 63.0 °F 54.9 °F 75% 30.81 in 9.0 mi ENE 16.1 mph 24.2 mph N/A   Mostly Cloudy
5:56 PM 61.9 °F 54.9 °F 78% 30.82 in 10.0 mi ENE 13.8 mph - N/A   Partly Cloudy
6:56 PM 63.0 °F 54.9 °F 75% 30.83 in 9.0 mi ENE 13.8 mph - N/A   Clear
7:56 PM 63.9 °F 56.8 °F 78% 30.84 in 8.0 mi ENE 15.0 mph 24.2 mph N/A   Partly Cloudy
8:56 PM 64.9 °F 55.9 °F 73% 30.84 in 8.0 mi ENE 17.3 mph 23.0 mph N/A   Clear
9:56 PM 65.8 °F 56.8 °F 73% 30.85 in 9.0 mi ENE 16.1 mph - N/A   Clear
10:56 PM 65.8 °F 55.9 °F 70% 30.84 in 9.0 mi ENE 16.1 mph - N/A   Clear
11:56 PM 66.9 °F 56.8 °F 70% 30.82 in 8.0 mi ENE 17.3 mph - N/A   Partly Cloudy